Location: Corcelles
(46.1547°N, 4.7234°E)
Time: 08:46:28
(UTC+00:00)

Cosmos 1656 - Pass Details

Date: 14 July 2020
Orbit: 799 x 848 km, 71.1° (Epoch: 14 August)

Event Time Altitude Azimuth Distance (km) Brightness Sun altitude
Rises 00:44:28 0° 336° (NNW) 3,318 7.6 -21.0°
Reaches altitude 10° 00:46:56 10° 340° (NNW) 2,384 6.8 -20.9°
Maximum altitude 00:52:18 58° 60° (ENE) 932 4.1 -20.6°
Enters shadow 00:56:35 16° 136° (SE) 1,990 5.4 -20.4°
